Location: Spring Creek
(38.2870°N, 100.2160°W)
Time: 23:47:55
(UTC+00:00)

Cosmos 2056 Rocket - Pass Details

Date: 08 May 2021
Orbit: 741 x 801 km, 74.0° (Epoch: 21 June)

Event Time Altitude Azimuth Distance (km) Brightness Sun altitude
Exits shadow 10:44:50 12° 224° (SW) 2,138 5.2 -9.8°
Maximum altitude 10:49:19 41° 293° (WNW) 1,065 4.0 -9.0°
Drops below altitude 10° 10:54:08 10° 4° (N) 2,260 6.4 -8.2°
Sets 10:56:38 0° 12° (NNE) 3,190 7.4 -7.8°
